Waarnemingen

Advertentie
Mijn weer
Boulogne, Frankrijk (7002): temperatuur & dauwpunt: 20.09.2017 14:00:00 - 26.09.2017 14:00:00 (CEST)Boulogne, Frankrijk (7002): windsnelheid & windstoten: 20.09.2017 14:00:00 - 26.09.2017 14:00:00 (CEST)Boulogne, Frankrijk (7002): windrichting: 20.09.2017 14:00:00 - 26.09.2017 14:00:00 (CEST)Boulogne, Frankrijk (7002): luchtdruk: 20.09.2017 14:00:00 - 26.09.2017 14:00:00 (CEST)Boulogne, Frankrijk (7002): zicht: 20.09.2017 14:00:00 - 26.09.2017 14:00:00 (CEST)Boulogne, Frankrijk (7002): neerslag: 20.09.2017 14:00:00 - 26.09.2017 14:00:00 (CEST)
Datum & Tijd tt [°C] td [°C] ff [km/u] ff [kn] fx [km/u] fx [kn] dd ppp [hPa] vv [km] rr [mm]
26.09.2017 14:00:00 18,9 11,2 10 5 18 10 ONO 1021,8 3,0 0,0
26.09.2017 13:00:00 18,6 12,3 9 5 22 12 ONO 1022,2 - 0,0
26.09.2017 12:00:00 17,1 12,6 14 8 25 14 ONO 1022,1 - 0,0
26.09.2017 11:00:00 16,0 12,5 16 9 24 13 ONO 1021,8 - 0,0
26.09.2017 10:00:00 15,4 12,0 14 8 22 12 ONO 1021,5 - 0,0
26.09.2017 09:00:00 14,9 11,9 11 6 19 10 O 1021,1 - 0,0
26.09.2017 08:00:00 14,6 12,1 10 5 14 7 ONO 1021,2 2,0 0,0
26.09.2017 07:00:00 14,3 12,2 3 1 16 9 N 1020,9 - 0,0
26.09.2017 06:00:00 14,3 12,2 12 6 18 10 ONO 1020,7 - 0,0
26.09.2017 05:00:00 14,8 12,1 10 5 14 7 O 1020,4 - 0,0
26.09.2017 04:00:00 14,8 12,1 5 3 13 7 O 1020,5 - 0,0
26.09.2017 03:00:00 15,0 12,1 8 5 17 9 O 1020,4 - 0,0
26.09.2017 02:00:00 15,1 12,0 12 7 23 12 O 1020,1 6 0,0
26.09.2017 01:00:00 15,1 12,6 14 8 24 13 ONO 1020,6 - 0,0
26.09.2017 00:00:00 15,6 12,9 18 10 26 14 ONO 1020,7 - 0,0
25.09.2017 23:00:00 16,0 13,1 16 9 25 14 ONO 1020,8 6 0,0
25.09.2017 22:00:00 16,4 13,3 16 9 27 15 ONO 1020,5 - 0,0
25.09.2017 21:00:00 16,9 13,6 17 9 27 14 ONO 1020,1 - 0,0
25.09.2017 20:00:00 17,3 13,6 16 8 24 13 ONO 1019,9 6 0,0
25.09.2017 19:00:00 18,6 12,8 11 6 19 10 ONO 1019,4 - 0,0
25.09.2017 18:00:00 19,4 12,6 9 5 19 11 ONO 1019,3 - 0,0
25.09.2017 17:00:00 19,7 11,5 9 5 22 12 O 1019,1 - 0,0
25.09.2017 16:00:00 20,0 11,0 14 7 25 14 O 1018,8 - 0,0
25.09.2017 15:00:00 19,9 11,4 11 6 24 13 O 1018,7 - 0,0
25.09.2017 14:00:00 20,7 10,8 14 8 27 15 OZO 1018,6 - 0,0
25.09.2017 13:00:00 19,1 10,6 14 8 25 14 OZO 1018,7 - 0,0
25.09.2017 12:00:00 18,2 11,0 12 7 26 14 ZO 1018,9 - 0,0
25.09.2017 11:00:00 17,4 11,0 9 5 23 12 ZO 1019,2 10 0,0
25.09.2017 10:00:00 16,6 10,0 10 5 19 10 ZO 1018,7 - 0,0
25.09.2017 09:00:00 15,0 10,2 7 4 16 9 ZZO 1018,6 - 0,0
25.09.2017 08:00:00 15,2 9,5 9 5 21 11 OZO 1018,5 10 0,0
25.09.2017 07:00:00 15,5 9,2 12 6 26 14 OZO 1018,5 - 0,0
25.09.2017 06:00:00 16,2 9,4 15 8 27 15 OZO 1018,3 - 0,0
25.09.2017 05:00:00 16,6 9,5 16 9 29 16 OZO 1018,5 - 0,0
25.09.2017 04:00:00 16,9 9,6 14 8 29 16 ZO 1018,7 - 0,0
25.09.2017 03:00:00 16,8 10,2 14 7 34 19 ZO 1018,9 - 0,0
25.09.2017 02:00:00 17,5 10,4 18 10 40 22 ZO 1018,9 12 0,0
25.09.2017 01:00:00 17,5 10,4 22 12 38 20 ZO 1019,3 - 0,0
25.09.2017 00:00:00 17,7 10,3 21 12 37 20 ZO 1019,8 - 0,0
24.09.2017 23:00:00 18,1 10,5 20 11 33 18 OZO 1019,9 12 0,0
24.09.2017 22:00:00 18,5 10,6 18 10 32 17 OZO 1019,7 - 0,0
24.09.2017 21:00:00 18,8 10,9 18 10 30 16 OZO 1019,3 - 0,0
24.09.2017 20:00:00 19,1 10,6 13 7 23 12 OZO 1019,3 - 0,0
24.09.2017 19:00:00 19,6 10,8 7 4 21 11 ZO 1019,6 - 0,0
24.09.2017 18:00:00 20,7 10,5 12 7 25 14 ZZO 1019,5 - 0,0
24.09.2017 17:00:00 20,7 9,6 16 8 30 16 ZZO 1019,6 - 0,0
24.09.2017 16:00:00 21,2 10,4 14 7 29 16 ZO 1019,6 - 0,0
24.09.2017 15:00:00 20,8 10,3 16 8 31 17 ZO 1019,9 - 0,0
24.09.2017 14:00:00 20,1 10,2 16 9 28 15 ZZO 1020,4 - 0,0
24.09.2017 13:00:00 19,3 10,0 11 6 23 12 ZO 1020,8 - 0,0
24.09.2017 12:00:00 18,8 10,4 10 5 27 15 ZO 1020,9 - 0,0
24.09.2017 11:00:00 17,3 9,9 13 7 24 13 ZZO 1021,2 12 0,0
24.09.2017 10:00:00 15,3 9,6 9 5 21 12 ZO 1021,0 - 0,0
24.09.2017 09:00:00 14,8 8,9 13 7 29 16 ZO 1020,5 - 0,0
24.09.2017 08:00:00 13,7 8,7 16 8 25 14 ZO 1020,6 12 0,0
24.09.2017 07:00:00 13,6 8,4 12 7 25 14 ZO 1020,2 - 0,0
24.09.2017 06:00:00 13,7 8,3 16 9 26 14 ZO 1020,3 - 0,0
24.09.2017 05:00:00 13,8 7,8 13 7 26 14 ZO 1020,6 15 0,0
24.09.2017 04:00:00 13,9 7,2 16 8 27 15 ZO 1020,8 - 0,0
24.09.2017 03:00:00 14,2 7,3 15 8 31 17 ZO 1021,3 - 0,0
24.09.2017 02:00:00 14,8 8,1 15 8 28 15 ZO 1021,3 - 0,0
24.09.2017 01:00:00 15,5 8,2 17 9 32 17 OZO 1021,1 - 0,0
24.09.2017 00:00:00 15,4 8,2 14 7 25 13 OZO 1021,4 - 0,0
23.09.2017 23:00:00 14,9 9,0 11 6 17 9 OZO 1021,7 12 0,0
23.09.2017 22:00:00 14,4 10,2 7 4 11 6 OZO 1021,8 - 0,0
23.09.2017 21:00:00 14,8 11,2 7 4 9 5 OZO 1021,7 - 0,0
23.09.2017 20:00:00 15,3 12,2 4 2 9 5 O 1021,4 10 0,0
23.09.2017 19:00:00 15,5 12,4 7 4 22 12 NNW 1021,4 - 0,0
23.09.2017 18:00:00 15,5 11,9 12 6 20 11 NNW 1021,7 - 0,0
23.09.2017 17:00:00 16,2 10,5 11 6 21 11 NNW 1021,8 - 0,0
23.09.2017 16:00:00 16,6 11,3 4 2 14 8 NW 1022,3 - 0,0
23.09.2017 15:00:00 15,7 10,7 8 5 16 9 W 1023,0 - 0,0
23.09.2017 14:00:00 16,0 11,0 8 4 16 9 W 1023,3 - 0,0
23.09.2017 13:00:00 17,0 10,4 7 4 17 9 ZZO 1023,7 - 0,0
23.09.2017 12:00:00 15,6 10,4 11 6 18 10 ZO 1024,1 - 0,0
23.09.2017 11:00:00 14,5 9,5 10 5 16 8 ZZO 1024,3 20 0,0
23.09.2017 10:00:00 12,8 9,1 8 4 14 8 ZO 1024,0 - 0,0
23.09.2017 09:00:00 11,4 8,3 10 6 18 10 ZO 1023,9 - 0,0
23.09.2017 08:00:00 11,0 7,7 11 6 21 11 OZO 1023,6 20 0,0
23.09.2017 07:00:00 9,8 7,6 14 7 19 10 ZO 1023,6 - 0,0
23.09.2017 06:00:00 10,1 8,0 14 8 18 10 ZO 1023,5 - 0,0
23.09.2017 05:00:00 10,1 8,0 14 7 18 10 OZO 1023,5 10 0,0
23.09.2017 04:00:00 11,0 8,6 10 5 15 8 ZO 1023,8 - 0,0
23.09.2017 03:00:00 11,2 8,4 9 5 15 8 ZO 1024,0 - 0,0
23.09.2017 02:00:00 11,1 8,3 9 5 16 8 ZO 1024,2 10 0,0
23.09.2017 01:00:00 11,5 8,5 8 5 13 7 ZO 1024,0 - 0,0
23.09.2017 00:00:00 11,5 8,4 7 4 11 6 ZZO 1024,0 - 0,0
22.09.2017 23:00:00 12,4 8,7 6 3 16 9 ZZO 1024,0 10 0,0
22.09.2017 22:00:00 13,8 9,0 8 5 22 12 ZW 1023,7 - 0,0
22.09.2017 21:00:00 14,1 8,7 13 7 23 12 WZW 1023,5 - 0,0
22.09.2017 20:00:00 14,1 8,1 11 6 24 13 WZW 1023,2 20 0,0
22.09.2017 19:00:00 15,2 7,5 14 8 25 14 WZW 1022,8 - 0,0
22.09.2017 18:00:00 15,5 9,2 16 9 26 14 WZW 1022,7 - 0,0
22.09.2017 17:00:00 15,7 10,0 17 9 26 14 W 1022,6 25 0,0
22.09.2017 16:00:00 15,5 10,9 14 8 22 12 W 1022,4 - 0,0
22.09.2017 15:00:00 15,2 12,1 12 6 19 10 W 1022,3 - 0,0
22.09.2017 14:00:00 15,4 12,0 12 7 19 10 WNW 1022,3 15 0,0
22.09.2017 13:00:00 15,5 12,1 11 6 21 12 NW 1022,1 - 0,0
22.09.2017 12:00:00 15,1 12,0 15 8 23 12 NNW 1021,9 - 0,0
22.09.2017 11:00:00 14,6 12,3 6 3 17 9 N 1021,6 15 0,0
22.09.2017 10:00:00 14,8 11,9 9 5 18 10 NNO 1021,2 - 0,0
22.09.2017 09:00:00 13,8 12,4 6 4 13 7 NNW 1020,8 - 0,0
22.09.2017 08:00:00 13,4 12,0 4 2 11 6 NO 1020,4 10 0,0
22.09.2017 07:00:00 13,9 12,1 9 5 14 8 NNO 1019,9 - 0,0
22.09.2017 06:00:00 14,2 12,4 7 4 17 9 NW 1019,7 - 0,0
22.09.2017 05:00:00 14,2 12,2 8 4 14 7 NW 1019,6 13 0,0
22.09.2017 04:00:00 14,5 12,5 8 5 20 11 NW 1019,4 - 0,0
22.09.2017 03:00:00 15,0 12,3 11 6 26 14 NW 1019,3 - 0,0
22.09.2017 02:00:00 15,5 12,4 12 6 26 14 WNW 1019,3 - 0,0
22.09.2017 01:00:00 15,7 13,7 17 9 25 14 WZW 1018,8 - 0,0
22.09.2017 00:00:00 15,6 13,1 10 6 27 15 W 1018,5 - 0,0
21.09.2017 23:00:00 15,8 12,5 16 9 27 15 W 1018,6 13 0,0
21.09.2017 22:00:00 16,2 13,9 14 7 25 13 WZW 1018,5 - 0,0
21.09.2017 21:00:00 16,4 10,3 11 6 18 10 Z 1018,0 - 0,0
21.09.2017 20:00:00 16,5 10,1 12 6 26 14 Z 1017,4 - 0,0
21.09.2017 19:00:00 17,5 9,4 14 7 29 16 ZZW 1017,2 - 0,0
21.09.2017 18:00:00 18,2 8,7 20 11 35 19 ZZW 1016,9 - 0,0
21.09.2017 17:00:00 18,8 10,1 20 11 36 20 Z 1016,7 15 0,0
21.09.2017 16:00:00 18,3 9,6 23 12 40 22 ZZW 1016,8 - 0,0
21.09.2017 15:00:00 18,5 9,0 23 12 40 22 ZZW 1016,8 - 0,0
21.09.2017 14:00:00 18,5 8,5 24 13 50 27 Z 1017,1 - 0,0
21.09.2017 13:00:00 17,7 8,5 28 15 50 27 Z 1017,4 - 0,0
21.09.2017 12:00:00 16,8 8,7 24 13 45 25 Z 1017,5 - 0,0
21.09.2017 11:00:00 15,6 8,8 21 12 40 22 Z 1017,7 15 0,0
21.09.2017 10:00:00 14,4 8,8 17 9 34 18 ZZO 1017,7 - 0,0
21.09.2017 09:00:00 12,2 8,1 23 12 - - ZZO 1017,6 - 0,0
21.09.2017 08:00:00 11,8 8,1 21 11 34 18 ZZO 1017,5 15 0,0
21.09.2017 07:00:00 11,8 8,5 20 11 31 17 ZZO 1017,5 - 0,0
21.09.2017 06:00:00 11,3 8,7 20 11 31 17 ZZO 1017,6 - 0,0
21.09.2017 05:00:00 11,1 8,8 16 9 26 14 ZO 1018,0 - 0,0
21.09.2017 04:00:00 11,5 9,4 16 9 26 14 ZO 1018,4 - 0,0
21.09.2017 03:00:00 11,8 9,7 14 7 26 14 ZO 1018,5 - 0,0
21.09.2017 02:00:00 12,0 9,6 13 7 22 12 ZO 1018,8 - 0,0
21.09.2017 01:00:00 12,2 9,8 13 7 21 12 ZO 1018,9 - 0,0
21.09.2017 00:00:00 12,5 10,6 11 6 18 10 ZO 1018,9 - 0,0
20.09.2017 23:00:00 12,9 10,8 10 5 16 9 ZO 1018,9 15 0,0
20.09.2017 22:00:00 13,5 11,0 9 5 16 9 ZO 1019,1 - 0,0
20.09.2017 21:00:00 14,7 10,9 9 5 20 11 Z 1019,3 - 0,0
20.09.2017 20:00:00 15,1 11,1 11 6 26 14 ZZW 1019,2 15 0,0
20.09.2017 19:00:00 15,6 11,0 17 9 33 18 ZW 1019,4 - 0,0
20.09.2017 18:00:00 15,8 10,8 19 10 34 18 ZW 1019,7 - 0,0
20.09.2017 17:00:00 15,6 11,2 22 12 41 22 ZW 1020,2 15 0,0
20.09.2017 16:00:00 14,9 11,9 31 17 45 24 ZW 1020,3 - 0,0
20.09.2017 15:00:00 16,0 12,0 27 15 40 22 WZW 1020,4 - 0,0
20.09.2017 14:00:00 15,5 12,1 15 8 40 21 Z 1020,6 20 0,0

tt = temperatuur
td = dauwpunt
ff = windsnelheid
fx = windstoten
dd = windrichting
ppp = luchtdruk
vv = zicht
rr = neerslag

Weerstations in de omgeving